Home   Weather   Cairo   Past weeks

Flag for Egypt Past Weather in Cairo, Egypt — Yesterday and Last 2 Weeks

Now
63 °F

Sunny.


Feels Like: 63 °F
Forecast: 49 / 67 °F
Wind: 15 mph from Northeast

Location: Cairo Airport

Current Time: Jan 20, 2017 at 12:01:01 pm

Latest Report: Jan 20, 2017 at 11:00 am


Visibility: 10 mi

Pressure: 30.18 "Hg

Humidity: 64%

Dew Point: 50 °F

Location of CairoLocation

Past Weather in Cairo — Graph

°F

Cairo Temperature Yesterday

Maximum temperature yesterday: 68 °F (at 1:30 pm)
Minimum temperature yesterday: 50 °F (at 6:00 am)
Average temperature yesterday: 59 °F

High & Low Weather Summary for the Past Weeks

 TemperatureHumidityPressure
High68 °F (Jan 6, 1:30 pm)100% (Jan 15, 2:30 am)30.24 "Hg (Jan 15, 2:30 am)
Low46 °F (Jan 6, 4:00 am)22% (Jan 11, 2:30 pm)29.86 "Hg (Jan 14, 12:30 pm)
Average57 °F60%30.08 "Hg
* Reported Jan 5 10:00 am — Jan 20 10:30 am, Cairo, Weather by CustomWeather, © 2017

Note: Actual official high and low records may vary slightly from our data, if they occured in-between our weather recording intervals... More about our weather records

Advertising

Cairo Weather History for the Previous 24 Hours

Scroll right to see more
 ConditionsComfort  
Time TempWeatherWind HumidityBarometerVisibility
10:30 am
Fri, Jan 20
61 °FSunny.20 mph68%30.21 "Hg10 mi
10:00 am59 °FClear.20 mph72%30.21 "Hg4 mi
9:30 am59 °FClear.20 mph72%30.21 "Hg4 mi
9:00 am55 °FFog.9 mph88%30.18 "Hg2 mi
8:30 am54 °FFog.6 mph88%30.18 "Hg2 mi
8:00 am52 °FFog.8 mph88%30.18 "Hg2 mi
7:30 am52 °FFog.6 mph88%30.18 "Hg2 mi
6:30 am52 °FFog.7 mph88%30.18 "Hg2 mi
6:00 am52 °FClear.8 mph88%30.15 "Hg4 mi
5:30 am52 °FClear.5 mph88%30.18 "Hg4 mi
5:00 am52 °FClear.5 mph88%30.15 "Hg4 mi
4:30 am52 °FClear.8 mph88%30.15 "Hg4 mi
4:00 am52 °FClear.8 mph88%30.15 "Hg4 mi
3:30 am52 °FClear.8 mph88%30.18 "Hg4 mi
3:00 am52 °FClear.8 mph88%30.18 "Hg4 mi
2:30 am54 °FClear.8 mph82%30.18 "Hg4 mi
2:00 am54 °FClear.7 mph82%30.18 "Hg4 mi
1:30 am54 °FClear.8 mph77%30.18 "Hg10 mi
1:00 am54 °FClear.7 mph77%30.18 "Hg10 mi
12:30 am54 °FClear.5 mph82%30.18 "Hg10 mi
12:00 am55 °FClear.5 mph77%30.18 "Hg10 mi
11:30 pm
Thu, Jan 19
55 °FClear.8 mph77%30.18 "Hg10 mi
11:00 pm57 °FClear.8 mph77%30.21 "Hg10 mi
10:30 pm57 °FClear.9 mph77%30.21 "Hg10 mi
10:00 pm59 °FClear.9 mph72%30.21 "Hg10 mi
9:30 pm59 °FClear.12 mph72%30.21 "Hg10 mi
9:00 pm59 °FClear.12 mph72%30.21 "Hg10 mi
8:30 pm59 °FClear.14 mph72%30.21 "Hg10 mi
8:00 pm61 °FClear.14 mph68%30.21 "Hg10 mi
7:30 pm61 °FClear.17 mph68%30.18 "Hg10 mi
7:00 pm63 °FClear.17 mph64%30.18 "Hg10 mi
6:30 pm63 °FClear.12 mph59%30.18 "Hg10 mi
6:00 pm64 °FClear.12 mph56%30.18 "Hg10 mi
5:30 pm64 °FClear.13 mph56%30.18 "Hg10 mi
5:00 pm66 °FSunny.16 mph49%30.15 "Hg10 mi
4:30 pm66 °FSunny.15 mph49%30.15 "Hg10 mi
4:00 pm68 °FPassing clouds.15 mph49%30.15 "HgN/A
3:30 pm68 °FPassing clouds.16 mph46%30.15 "HgN/A
3:00 pm68 °FPassing clouds.15 mph43%30.15 "HgN/A
2:30 pm68 °FPassing clouds.15 mph43%30.15 "HgN/A
2:00 pm66 °FPassing clouds.15 mph49%30.15 "HgN/A
1:30 pm68 °FPassing clouds.15 mph43%30.15 "HgN/A
1:00 pm66 °FPassing clouds.15 mph49%30.15 "HgN/A
12:30 pm66 °FScattered clouds.15 mph56%30.18 "HgN/A
12:00 pm64 °FScattered clouds.15 mph60%30.18 "HgN/A
Weather by CustomWeather, © 2017

See weather overviewHow to use our weather pages